Weather History for Chicago Midway, IL

Change the Weather History Date:

Tuesday, March 5, 2013

  Actual Average Record
Temperature  
Mean Temperature 31 °F 35 °F  
Max Temperature 33 °F 42 °F 76 °F (1983)
Min Temperature 29 °F 27 °F 0 °F (1978)
Degree Days  
Heating Degree Days 34 30  
Month to date heating degree days 184 155  
Since 1 July heating degree days 4336 4666  
Cooling Degree Days 0 0  
Month to date cooling degree days 0 0  
Year to date cooling degree days 0 0  
Moisture  
Dew Point 28 °F    
Average Humidity 87    
Maximum Humidity 93    
Minimum Humidity 75    
Precipitation  
Precipitation 0.08 in 0.09 in 0.99 in (1946)
Month to date precipitation T 0.43  
Year to date precipitation 4.25 4.43  
Snow  
Snow 0.00 in - - ()
Snow Depth 8.00 in    
Sea Level Pressure  
Sea Level Pressure 29.89 in    
Wind  
Wind Speed 12 mph (NE)    
Max Wind Speed 20 mph    
Max Gust Speed 28 mph    
Visibility 3 miles    
Events Fog , Snow    
T = Trace of Precipitation, MM = Missing Value Source: NWS Daily Summary

Daily Weather History Graph

Daily Weather History Graph

Search for Another Location

Airport:

Trip Planner

Search our weather history database for the weather conditions in past years. The results will help you decide how hot, cold, wet, or windy it might be!

Date:

Astronomy

Mar. 05, 2013 Rise Set
Actual Time 6:19 AM CST 5:46 PM CST
Civil Twilight 5:51 AM CST 6:14 PM CST
Nautical Twilight 5:19 AM CST 6:46 PM CST
Astronomical Twilight 4:46 AM CST 7:18 PM CST
Moon 1:34 AM CST (3/5) 11:21 AM CST (3/5)
Length of Visible Light 12h 23m
Length of Day
11h 27m
Last Quarter, 40% of the Moon is Illuminated
Mar 5
Last Quarter
Mar 11
New
Mar 19
First Quarter
Mar 27
Full
Apr 2
Last Quarter

Hourly Weather History & Observations

Time (CST) Temp. Windchill Dew Point Humidity Pressure Visibility Wind Dir Wind Speed Gust Speed Precip Events Conditions
1:51 AM 33.8 °F 25.8 °F 26.6 °F 75% 29.96 in 7.0 mi East 10.4 mph - N/A   Overcast
2:40 AM 32.0 °F 22.5 °F 26.6 °F 80% 29.94 in 6.0 mi East 12.7 mph - N/A   Haze
2:51 AM 32.0 °F 23.0 °F 27.0 °F 82% 29.97 in 6.0 mi East 11.5 mph - N/A   Haze
3:51 AM 32.0 °F 23.0 °F 27.0 °F 82% 29.95 in 7.0 mi East 11.5 mph - N/A   Overcast
4:27 AM 32.0 °F 22.1 °F 26.6 °F 80% 29.91 in 10.0 mi East 13.8 mph - N/A   Overcast
4:51 AM 32.0 °F 22.5 °F 27.0 °F 82% 29.94 in 10.0 mi East 12.7 mph - N/A   Overcast
5:36 AM 33.8 °F 23.5 °F 26.6 °F 75% 29.90 in 7.0 mi East 16.1 mph 19.6 mph 0.00 in Snow Light Snow
5:51 AM 33.1 °F 23.4 °F 27.0 °F 78% 29.93 in 6.0 mi East 13.8 mph 20.7 mph 0.00 in Snow Light Snow
6:37 AM 32.0 °F 23.0 °F 26.6 °F 80% 29.89 in 2.5 mi East 11.5 mph - N/A Snow Light Snow
6:51 AM 32.0 °F 24.2 °F 28.4 °F 87% 29.88 in 2.0 mi East 9.2 mph - N/A Snow Light Snow
7:18 AM 32.0 °F 23.6 °F 28.4 °F 87% 29.88 in 1.5 mi East 10.4 mph - 0.00 in Snow Light Snow
7:49 AM 32.0 °F 23.6 °F 28.4 °F 87% 29.88 in 1.8 mi East 10.4 mph - 0.00 in Snow Light Snow
7:51 AM 32.0 °F 22.5 °F 28.0 °F 85% 29.91 in 1.8 mi East 12.7 mph - 0.00 in Snow Light Snow
8:11 AM 32.0 °F 25.6 °F 28.4 °F 87% 29.88 in 1.2 mi East 6.9 mph - 0.01 in Snow Light Snow
8:27 AM 32.0 °F 26.4 °F 28.4 °F 87% 29.89 in 0.8 mi East 5.8 mph - 0.02 in Snow Light Snow
8:51 AM 32.0 °F 25.6 °F 28.9 °F 88% 29.92 in 0.8 mi ENE 6.9 mph - 0.03 in Snow Light Snow
9:22 AM 32.0 °F 25.6 °F 28.4 °F 87% 29.88 in 0.5 mi ENE 6.9 mph - 0.01 in Fog , Snow Light Snow
9:51 AM 32.0 °F 23.6 °F 28.9 °F 88% 29.90 in 0.5 mi ENE 10.4 mph - 0.03 in Fog , Snow Snow
10:18 AM 32.0 °F 23.0 °F 28.4 °F 87% 29.85 in 0.8 mi ENE 11.5 mph - 0.01 in Snow Light Snow
10:51 AM 32.0 °F 23.6 °F 28.9 °F 88% 29.87 in 0.8 mi ENE 10.4 mph - 0.01 in Snow Light Snow
11:36 AM 32.0 °F 23.6 °F 28.4 °F 87% 29.82 in 0.5 mi ENE 10.4 mph 19.6 mph 0.01 in Fog , Snow Snow
11:51 AM 30.9 °F 22.8 °F 28.9 °F 92% 29.86 in 0.5 mi ENE 9.2 mph - 0.01 in Fog , Snow Snow
12:51 PM 30.9 °F 22.2 °F 28.9 °F 92% 29.84 in 0.2 mi ENE 10.4 mph - 0.02 in Fog , Snow Snow
1:18 PM 30.2 °F 21.3 °F 28.4 °F 93% 29.80 in 0.2 mi ENE 10.4 mph - 0.01 in Fog , Snow Snow
1:51 PM 30.9 °F 20.2 °F 28.0 °F 89% 29.83 in 0.5 mi NE 15.0 mph - 0.02 in Fog , Snow Snow
2:51 PM 30.0 °F 20.0 °F 28.0 °F 92% 29.83 in 0.2 mi NE 12.7 mph - 0.03 in Fog , Snow Heavy Snow
3:51 PM 28.9 °F 17.3 °F 27.0 °F 92% 29.84 in 0.2 mi NE 16.1 mph - 0.01 in Fog , Snow Heavy Snow
4:51 PM 28.9 °F 18.2 °F 27.0 °F 92% 29.86 in 0.5 mi NE 13.8 mph - 0.01 in Fog , Snow Snow
5:46 PM 28.4 °F 20.4 °F 26.6 °F 93% 29.84 in 0.8 mi NE 8.1 mph - 0.02 in Snow Light Snow
5:51 PM 28.9 °F 19.8 °F 27.0 °F 92% 29.88 in 0.8 mi NE 10.4 mph - 0.02 in Snow Light Snow
6:24 PM 30.2 °F 23.4 °F 28.4 °F 93% 29.85 in 1.0 mi NNE 6.9 mph - 0.01 in Snow Light Snow
6:51 PM 30.0 °F 20.5 °F 28.0 °F 92% 29.89 in 1.0 mi NNE 11.5 mph - 0.02 in Snow Light Snow
7:39 PM 30.2 °F 19.8 °F 28.4 °F 93% 29.86 in 0.8 mi North 13.8 mph - 0.00 in Snow Light Snow
7:51 PM 30.0 °F 17.5 °F 28.0 °F 92% 29.90 in 0.8 mi North 19.6 mph 25.3 mph 0.01 in Snow Light Snow
7:58 PM 30.2 °F 18.5 °F 28.4 °F 93% 29.87 in 1.2 mi NNE 17.3 mph 25.3 mph 0.00 in Snow Light Snow
8:51 PM 30.9 °F 19.8 °F 28.0 °F 89% 29.93 in 2.0 mi North 16.1 mph 25.3 mph 0.00 in Snow Light Snow
9:09 PM 30.2 °F 20.2 °F 28.4 °F 93% 29.90 in 3.0 mi North 12.7 mph 23.0 mph 0.00 in Snow Light Snow
9:51 PM 32.0 °F 23.6 °F 28.9 °F 88% 29.95 in 7.0 mi NNE 10.4 mph - 0.00 in Snow Light Snow
10:43 PM 32.0 °F 21.2 °F 26.6 °F 80% 29.93 in 7.0 mi North 16.1 mph - 0.00 in Snow Light Snow
10:51 PM 32.0 °F 22.5 °F 28.0 °F 85% 29.97 in 9.0 mi North 12.7 mph - 0.00 in Snow Light Snow
11:19 PM 32.0 °F 23.6 °F 26.6 °F 80% 29.95 in 9.0 mi North 10.4 mph - 0.00 in   Overcast
11:51 PM 33.1 °F 24.4 °F 26.1 °F 75% 29.99 in 10.0 mi North 11.5 mph - 0.00 in   Overcast